W7JFO-3 Weather Reports


time (UTC)temp
C
wind
direction
speed
KPH
gust
KPH
rain 1hr
cm
rain 24hr
cm
rain mn
cm
humidity
%
barometer
mb
20260507064640 10 290 6.4 9.7 0.03 0.05 0.05 77 1009.0
20260507063140 10 283 14.5 22.5 0.03 0.05 0.05 78 1009.0
20260507061640 11 304 11.3 19.3 0.00 0.03 0.03 71 1008.6
20260507060140 12 310 3.2 8.0 0.00 0.03 0.03 58 1008.5
20260507054640 12 137 8.0 12.9 0.00 0.03 0.03 57 1008.3
20260507053140 12 92 3.2 11.3 0.00 0.03 0.03 56 1008.0
20260507051640 13 103 8.0 11.3 0.03 0.03 0.03 56 1008.4
20260507050140 12 113 11.3 19.3 0.03 0.03 0.03 59 1007.7
20260507044640 12 90 6.4 16.1 0.03 0.03 0.03 62 1007.8
20260507043140 12 199 6.4 11.3 0.03 0.03 0.03 62 1007.8
20260507041640 13 142 3.2 12.9 0.00 0.00 0.00 57 1008.3
20260507040140 14 204 11.3 17.7 0.00 0.00 0.00 49 1008.0
20260507034640 14 232 16.1 27.4 0.00 0.00 0.00 51 1007.6
20260507033140 13 234 17.7 33.8 0.00 0.00 0.00 53 1007.8
20260507031640 15 236 8.0 25.7 0.00 0.00 0.00 47 1007.8
20260507030140 15 213 14.5 20.9 0.00 0.00 0.00 41 1008.2
20260507024640 15 300 14.5 32.2 0.00 0.00 0.00 54 1008.3
20260507023140 16 223 11.3 24.1 0.00 0.00 0.00 49 1007.5
20260507021640 16 222 11.3 20.9 0.00 0.00 0.00 48 1007.3
20260507020140 17 234 14.5 27.4 0.00 0.00 0.00 47 1007.5
20260507014640 17 180 12.9 20.9 0.00 0.00 0.00 46 1007.2
20260507013140 17 191 14.5 24.1 0.00 0.00 0.00 44 1007.2
20260507011640 17 237 11.3 20.9 0.00 0.00 0.00 43 1007.8
20260507010140 17 197 4.8 9.7 0.00 0.00 0.00 42 1008.0
20260507004640 17 209 8.0 14.5 0.00 0.00 0.00 42 1007.7
20260507003140 17 198 8.0 16.1 0.00 0.00 0.00 41 1007.8
20260507001640 18 222 3.2 11.3 0.00 0.00 0.00 40 1008.2
20260507000140 17 160 3.2 6.4 0.00 0.00 0.00 42 1008.0
20260506234640 17 35 1.6 3.2 0.00 0.00 0.00 43 1008.0
20260506233140 17 35 1.6 4.8 0.00 0.00 0.00 42 1008.1
20260506231640 17 47 3.2 8.0 0.00 0.00 0.00 41 1008.5
20260506230140 17 119 3.2 6.4 0.00 0.00 0.00 40 1008.4
20260506224640 16 60 3.2 6.4 0.00 0.00 0.00 40 1008.5
20260506223140 16 329 3.2 3.2 0.00 0.00 0.00 41 1008.7
20260506221640 16 331 4.8 8.0 0.00 0.00 0.00 40 1009.3
20260506220140 16 350 6.4 11.3 0.00 0.00 0.00 39 1009.1
20260506214640 17 23 3.2 9.7 0.00 0.00 0.00 37 1009.3
20260506213140 17 5 3.2 6.4 0.00 0.00 0.00 37 1009.9
20260506211641 17 69 4.8 11.3 0.00 0.00 0.00 36 1009.9
20260506210140 17 34 4.8 9.7 0.00 0.00 0.00 36 1009.8
20260506204641 17 0 4.8 8.0 0.00 0.00 0.00 36 1009.9
20260506203141 16 49 6.4 14.5 0.00 0.00 0.00 36 1010.2
20260506201641 16 84 6.4 9.7 0.00 0.00 0.00 37 1010.6
20260506200141 16 88 6.4 12.9 0.00 0.00 0.00 37 1010.5
20260506194641 15 69 4.8 8.0 0.00 0.00 0.00 37 1010.7
20260506193141 14 80 4.8 12.9 0.00 0.00 0.00 41 1011.4
20260506191641 14 70 6.4 16.1 0.00 0.00 0.00 36 1011.3
20260506190141 14 78 4.8 16.1 0.00 0.00 0.00 37 1011.4
20260506184641 13 61 4.8 9.7 0.00 0.00 0.00 37 1012.1
20260506183141 13 146 4.8 11.3 0.00 0.00 0.00 39 1011.9
20260506181641 12 68 4.8 12.9 0.00 0.00 0.00 43 1012.0
20260506180141 11 11 4.8 12.9 0.00 0.00 0.00 44 1012.5
20260506174641 11 26 4.8 14.5 0.00 0.00 0.00 44 1012.5
20260506173141 11 43 6.4 9.7 0.00 0.00 0.00 47 1012.8
20260506171641 11 45 4.8 9.7 0.00 0.00 0.00 47 1013.4
20260506170141 10 58 4.8 8.0 0.00 0.00 0.00 47 1013.3
20260506164641 10 17 4.8 11.3 0.00 0.00 0.00 49 1013.3
20260506163141 10 32 3.2 4.8 0.00 0.00 0.00 50 1013.4
20260506161641 9 47 6.4 20.9 0.00 0.00 0.00 50 1013.5
20260506160141 8 85 6.4 12.9 0.00 0.00 0.00 49 1013.7
20260506154641 7 85 4.8 8.0 0.00 0.00 0.00 52 1013.7
20260506153141 7 84 4.8 11.3 0.00 0.00 0.00 53 1013.9
20260506151641 8 74 1.6 9.7 0.00 0.00 0.00 53 1013.9
20260506150141 8 133 1.6 3.2 0.00 0.00 0.00 57 1013.8
20260506144641 7 100 3.2 8.0 0.00 0.00 0.00 50 1013.8
20260506143141 7 88 3.2 6.4 0.00 0.00 0.00 51 1013.9
20260506141641 7 79 1.6 4.8 0.00 0.00 0.00 53 1014.1
20260506140141 6 96 3.2 6.4 0.00 0.00 0.00 51 1014.1
20260506134642 6 69 3.2 6.4 0.00 0.00 0.00 51 1014.1
20260506133141 6 105 1.6 3.2 0.00 0.00 0.00 51 1014.0
20260506131641 6 107 1.6 3.2 0.00 0.00 0.00 48 1014.0
20260506130141 5 107 1.6 1.6 0.00 0.00 0.00 48 1014.1
20260506124641 5 107 4.8 11.3 0.00 0.00 0.00 49 1014.4
20260506123141 5 93 4.8 9.7 0.00 0.00 0.00 50 1014.3
20260506121641 5 108 1.6 8.0 0.00 0.00 0.00 49 1014.4
20260506120141 5 107 3.2 6.4 0.00 0.00 0.00 50 1014.0
20260506114641 5 117 3.2 4.8 0.00 0.00 0.00 49 1014.1
20260506113141 5 140 4.8 6.4 0.00 0.00 0.00 49 1014.2
20260506111642 5 140 4.8 11.3 0.00 0.00 0.00 49 1014.4
20260506110142 5 144 8.0 11.3 0.00 0.00 0.00 48 1014.4
20260506104642 5 139 8.0 16.1 0.00 0.00 0.00 47 1014.6
20260506103142 5 139 11.3 17.7 0.00 0.00 0.00 48 1014.5
20260506101642 5 138 12.9 14.5 0.00 0.00 0.00 47 1014.2
20260506100142 5 124 12.9 17.7 0.00 0.00 0.00 48 1014.2
20260506094642 5 139 12.9 17.7 0.00 0.00 0.00 48 1014.2
20260506093142 5 130 11.3 16.1 0.00 0.00 0.00 47 1014.3
20260506091642 5 148 8.0 16.1 0.00 0.00 0.00 47 1014.3
20260506090142 5 185 6.4 14.5 0.00 0.00 0.00 48 1014.3
20260506084642 5 142 17.7 25.7 0.00 0.00 0.00 48 1014.5
20260506083142 6 142 20.9 29.0 0.00 0.00 0.00 47 1014.5
20260506081642 6 140 20.9 29.0 0.00 0.00 0.00 46 1014.4
20260506080142 6 135 22.5 29.0 0.00 0.00 0.00 46 1014.1
20260506073143 6 144 19.3 25.7 0.00 0.00 0.00 48 1014.4
20260506071642 5 140 20.9 25.7 0.00 0.00 0.00 49 1014.4
20260506070142 6 140 17.7 20.9 0.00 0.00 0.00 49 1014.5